Location: Sternwarte_Laufen
(47.9344°N, 12.9346°E)
Time: 15:16:58
(UTC+02:00)

ISS - Pass Details

Date: 21 March 2017
Orbit: 399 x 409 km, 51.6° (Epoch: 29 March)

Event Time Altitude Azimuth Distance (km) Brightness Sun altitude
Exits shadow 03:03:51 10° 89° (E) 1,463 -0.4 -29.6°
Drops below altitude 10° 03:03:52 10° 89° (E) 1,475 -0.4 -29.6°
Sets 03:06:00 0° 95° (E) 2,336 0.7 -29.3°
